Regional Weather Roundup
Issued by NWS

Home | Current Version | Previous Version | Text Only | Print | Product List | Glossary Off
Versions: 1 2 3 4 5 6 7 8 9 10 11 12 13 14 15 16 17 18 19 20 21 22 23 24 25 26 27 28 29 30 31 32 33 34 35 36 37 38 39 40 41 42 43 44 45 46 47 48 49 50

000
ASUS43 KFSD 172310
RWRSD

WEATHER ROUNDUP FOR SOUTH DAKOTA
NATIONAL WEATHER SERVICE SIOUX FALLS SD
500 PM CST SAT FEB 17 2018

NOTE: "FAIR" INDICATES FEW OR NO CLOUDS BELOW 12,000 FEET WITH NO
SIGNIFICANT WEATHER AND/OR OBSTRUCTIONS TO VISIBILITY.


SDZ001>005-009-010-012>017-180000-
NORTHWEST AND NORTH CENTRAL SOUTH DAKOTA

CITY           SKY/WX    TMP DP  RH WIND       PRES   REMARKS
BUFFALO          N/A     20  14  77 E7        29.80F WCI  11
FAITH            N/A     19  15  84 S5        29.94F WCI  12
MOBRIDGE       SUNNY     23  12  62 NW8       29.97F WCI  14
$$

SDZ012>016-024>037-041>051-057-063-072>074-180000-
SOUTHWEST AND SOUTH CENTRAL SOUTH DAKOTA

CITY           SKY/WX    TMP DP  RH WIND       PRES   REMARKS
RAPID CTY ARPT CLOUDY    26  19  74 E8        29.89F WCI  18
PIERRE         PTSUNNY   24  17  74 NW10      30.01F WCI  14
CUSTER         SUNNY     33  12  41 SW7       29.77F WCI  27
ELLSWORTH AFB  CLOUDY    26  20  80 E7        29.88  WCI  18
PHILIP         MOSUNNY   28  19  69 NE10      29.97F WCI  19
PINE RIDGE     SUNNY     40  19  43 E5        29.88F
SPEARFISH        N/A     23  18  80 SE10      29.79F WCI  12
WINNER         MOCLDY    35  24  64 NE6       30.03S
$$

SDZ004>011-016>023-039-040-180000-
NORTHEAST SOUTH DAKOTA

CITY           SKY/WX    TMP DP  RH WIND       PRES   REMARKS
ABERDEEN       CLEAR     30  13  49 W12       30.01F WCI  20
WATERTOWN      CLEAR     29  14  53 W14       29.97S WCI  18
BROOKINGS      PTCLDY    31  19  61 NW17      30.00R WCI  19
SISSETON         N/A     29   7  39 NW16G25   29.98S WCI  17
$$

SDZ017-020-022-023-036>040-048>070-180000-
SOUTHEAST SOUTH DAKOTA

CITY           SKY/WX    TMP DP  RH WIND       PRES   REMARKS
SIOUX FALLS    PTCLDY    30  22  72 NW12      30.05R WCI  20
HURON          MOCLDY    31  22  69 W9        30.04S WCI  23
CHAMBERLAIN    SUNNY     32  24  71 CALM      30.04F
MITCHELL       MOSUNNY   31  22  69 W16       30.07R WCI  20
YANKTON        MOSUNNY   32  25  75 NW13      30.09R WCI  22
$$

ABBREVIATIONS USED IN REMARKS
   TC - TEMPERATURE IN CELSIUS
  WCI - WIND CHILL INDEX
   HX - HEAT INDEX
  VSB - VISIBILITY




USA.gov is the U.S. government's official web portal to all federal, state and local government web resources and services.